Theta_e
351 348 347 352 351 342 344 348 350 350 348 348 347 349 349 347 344 342 343 344 343 341 343 343 339 340 341 341 343 344 342 340 340 340 345 343 340 340 340 342 339 340 342
351 350 351 350 348 343 349 350 349 349 350 346 347 348 348 348 348 346 344 343 343 342 344 344 344 338 338 343 344 341 341 342 341 340 340 341 343 342 341 340 341 342 338
350 354 352 347 350 351 351 350 346 348 348 345 343 347 350 349 348 348 348 347 348 345 347 347 345 343 340 344 344 344 344 341 342 340 341 341 341 338 341 341 340 341 342
354 354 352 353 352 352 351 351 347 346 347 346 344 346 350 351 350 350 348 349 349 347 347 347 345 345 339 344 344 339 343 342 341 341 338 340 340 338 332 342 340 337 341
354 353 353 355 353 352 351 350 350 347 347 350 349 350 349 346 349 346 349 350 350 349 346 346 347 345 340 344 342 341 339 341 342 339 339 337 338 340 338 333 340 340 336
349 356 355 355 354 349 351 350 350 351 350 349 352 351 350 349 350 343 345 350 350 350 350 347 346 344 345 346 346 345 346 344 341 340 337 337 335 336 338 339 340 339 340
355 355 354 356 353 350 355 354 354 352 351 351 350 351 350 351 351 350 342 351 349 350 348 348 348 346 345 345 346 345 346 346 345 343 341 337 337 336 337 338 339 338 338
357 359 355 356 355 351 353 351 351 350 352 350 347 348 343 349 352 350 349 349 349 350 349 347 346 347 347 343 343 343 344 345 346 346 342 339 339 339 337 337 337 336 337
358 357 358 354 352 353 353 355 354 349 352 352 349 348 345 347 349 351 352 350 350 350 348 348 345 345 345 345 345 343 344 344 344 344 344 344 343 342 342 341 337 337 337
358 357 353 353 352 354 353 353 353 355 353 355 354 352 350 348 346 347 351 351 349 349 348 347 346 346 345 343 342 341 342 341 341 341 342 341 341 340 340 340 340 340 339
356 358 354 352 349 355 351 353 355 353 355 355 354 356 355 349 348 347 346 350 350 348 349 349 347 346 344 344 342 333 329 327 325 325 326 328 333 336 339 341 343 343 344
355 358 357 353 351 355 351 352 352 351 350 350 350 346 347 349 348 351 346 347 347 347 347 347 346 345 345 342 334 326 325 323 321 320 320 320 322 325 328 331 337 342 342
355 357 360 353 353 354 353 354 348 354 345 351 347 345 343 341 340 344 349 348 347 347 347 346 345 345 343 342 333 328 325 322 320 318 318 318 317 316 316 316 316 319 329
359 352 360 357 359 353 353 353 352 350 349 341 339 344 342 340 339 336 339 348 343 347 347 346 345 345 343 341 337 331 328 328 319 317 317 319 317 317 317 316 316 316 315
360 354 359 360 360 360 352 354 351 353 351 346 343 339 338 340 337 335 332 330 337 344 342 346 345 341 341 338 334 330 330 328 323 320 317 316 317 317 317 316 317 316 316
358 357 357 363 363 361 360 356 355 354 346 341 345 344 334 338 335 334 331 329 330 337 339 345 344 343 339 332 329 329 331 328 324 322 319 315 316 317 317 317 317 317 317
359 361 360 358 360 363 363 359 356 357 351 347 346 344 341 336 335 335 330 329 328 331 341 344 344 338 334 333 331 327 330 328 324 323 318 314 314 316 317 317 317 317 317
354 361 359 361 361 360 364 362 359 359 354 348 348 345 345 343 338 333 329 327 325 329 344 340 340 337 334 332 328 328 329 325 324 324 318 317 317 315 315 315 316 317 317
355 356 362 363 363 361 363 364 362 360 360 354 349 348 346 343 338 333 327 326 326 327 340 337 335 334 333 332 331 331 327 323 324 323 319 319 318 319 320 316 316 317 317
357 354 354 362 361 361 364 365 364 362 360 357 353 350 349 346 342 335 330 326 324 324 335 336 333 331 332 331 331 329 327 324 323 323 322 320 320 320 319 319 318 317 317
358 357 357 357 362 362 361 365 364 363 361 357 354 350 349 346 344 338 330 327 323 326 327 333 333 334 333 332 330 326 323 322 324 324 322 323 323 322 321 320 319 318 317
359 359 359 358 359 364 363 363 361 356 352 353 353 350 348 345 343 335 329 331 326 326 332 330 330 334 332 331 329 324 323 324 327 324 324 322 322 323 324 321 320 321 318
363 361 363 362 361 361 364 365 360 355 344 347 351 344 344 343 341 333 330 329 331 329 326 328 328 330 329 326 323 322 322 325 326 327 326 325 323 322 323 324 323 322 322
359 361 364 360 363 365 363 363 360 354 353 349 342 339 344 343 339 332 330 326 329 323 318 320 328 327 325 325 324 323 324 326 324 323 323 323 323 323 323 323 323 323 321
353 352 354 356 351 355 361 359 358 354 346 340 338 341 346 342 339 335 329 322 322 318 315 320 325 324 325 326 325 324 323 324 324 324 328 326 325 323 323 322 321 321 321
336 339 339 343 338 339 351 355 348 348 339 338 338 343 343 341 340 333 326 321 322 321 319 326 326 326 322 321 325 322 323 322 322 322 327 326 325 323 321 323 322 322 322
Wind_Speed
4 8 8 6 2 3 13 13 11 13 13 10 9 11 21 15 12 10 12 13 8 6 2 10 14 13 14 13 12 10 10 10 11 11 10 9 9 8 9 8 8 8 8
3 4 6 7 8 11 13 10 14 13 10 10 10 10 10 7 4 4 5 9 8 6 6 5 14 17 16 14 12 11 11 11 11 11 11 11 10 9 9 9 9 9 9
5 2 4 7 4 7 4 9 11 12 11 7 6 7 8 4 6 5 6 7 6 8 7 7 10 16 17 14 12 10 8 9 9 10 11 11 11 10 10 10 10 10 10
4 3 6 6 5 2 2 6 9 9 8 7 7 5 5 5 4 7 7 9 8 9 10 9 9 13 20 15 13 13 12 10 10 10 11 12 12 11 11 11 12 12 11
1 2 2 5 4 7 7 7 9 8 9 7 7 5 5 5 5 7 12 12 10 9 9 10 8 10 18 16 16 14 12 11 11 11 10 10 11 13 12 14 13 13 13
2 1 3 5 4 8 10 9 8 6 7 7 3 5 5 8 10 9 13 10 9 8 6 8 8 8 10 14 15 15 15 15 14 14 12 13 13 12 14 15 14 14 15
5 3 5 3 7 8 8 6 5 6 7 6 9 8 7 8 8 8 12 13 10 12 7 7 6 8 7 10 11 12 15 14 16 15 15 15 13 13 12 14 15 16 17
2 0 5 7 4 7 8 8 7 9 9 8 5 7 2 5 6 8 11 12 13 13 10 11 8 8 6 6 7 9 10 14 13 14 16 15 15 14 16 17 17 17 18
4 1 2 6 4 4 8 6 6 7 6 6 7 4 3 2 4 8 10 11 16 15 11 13 12 12 10 7 8 8 8 8 8 10 12 13 16 16 18 19 23 24 27
6 3 3 4 2 7 5 6 7 4 2 3 4 7 4 10 3 1 7 13 15 18 17 18 17 15 12 10 8 8 8 8 7 7 7 9 10 11 13 15 21 27 32
9 7 6 5 5 4 4 6 3 2 4 2 5 2 11 13 7 4 2 5 18 19 19 21 21 15 11 9 8 7 7 6 5 5 6 6 7 7 8 8 8 11 20
13 12 7 7 5 5 5 8 5 4 1 1 3 7 9 3 4 5 3 8 15 19 18 20 22 18 15 11 10 9 7 5 4 3 4 4 3 4 4 5 5 5 4
15 17 13 11 9 9 8 6 5 5 4 3 2 4 7 8 10 6 6 9 6 14 11 16 19 20 19 14 12 9 7 5 3 3 4 4 3 4 4 5 5 5 5
22 20 17 11 12 10 9 8 7 9 6 5 5 5 3 4 2 9 7 7 1 3 9 11 19 23 20 16 14 9 7 4 1 3 4 5 5 5 6 7 7 7 7
15 22 21 16 12 11 12 10 11 11 11 7 3 1 4 3 1 1 5 5 4 3 3 12 11 23 21 18 12 9 7 3 3 2 3 5 6 5 6 7 8 8 8
15 20 21 19 16 15 12 13 12 13 11 9 8 10 9 5 2 2 2 2 5 4 3 9 14 22 21 16 11 9 8 7 4 4 3 4 5 5 5 6 7 8 8
19 20 19 18 22 20 19 15 17 15 16 11 7 13 7 5 5 3 4 3 3 3 4 3 15 22 18 13 11 10 6 8 10 7 3 4 4 5 5 6 7 6 6
23 21 22 22 20 22 22 21 18 16 18 15 15 12 9 6 4 2 1 1 2 3 9 18 20 20 16 12 12 10 6 6 9 10 6 0 1 2 2 4 5 6 5
30 25 24 26 25 24 24 24 22 21 20 20 19 17 13 10 9 7 3 4 5 6 10 17 12 15 13 15 13 9 7 5 8 9 8 6 7 4 3 3 4 4 3
31 32 31 28 30 28 27 26 28 26 24 20 17 18 14 13 14 9 8 6 6 7 11 15 12 14 16 15 10 8 8 10 9 12 13 10 9 12 9 7 4 3 2
32 33 32 33 32 33 33 32 29 29 27 23 20 18 15 15 13 9 10 9 9 9 8 9 8 12 17 18 16 9 10 5 12 9 8 7 8 14 17 15 9 6 3
32 33 36 35 35 33 35 32 29 18 10 27 18 17 16 15 13 13 12 10 10 10 9 5 1 12 17 18 15 9 6 4 1 6 6 6 6 6 4 13 13 9 7
21 27 34 37 36 37 34 34 28 21 30 23 20 15 16 16 15 17 15 11 12 9 7 6 6 10 13 13 14 10 7 4 3 6 5 10 10 4 2 4 9 12 10
20 13 19 25 33 35 32 30 29 23 30 22 15 14 18 17 20 21 18 16 13 10 8 7 8 9 10 8 6 7 5 3 5 7 9 8 7 4 5 6 10 13 9
5 3 4 10 22 31 29 25 19 16 18 12 11 16 17 17 19 18 18 17 13 10 9 9 11 7 7 7 5 8 4 1 3 8 10 11 8 5 7 8 11 10 8
4 9 13 12 19 35 22 20 16 20 16 11 10 13 12 15 16 18 18 18 17 16 15 14 12 9 8 10 9 6 8 4 1 2 2 4 4 4 1 3 8 8 8
Wind_Direction
317 316 343 332 221 229 260 197 191 189 185 188 185 193 201 199 226 261 203 203 218 217 173 188 183 176 166 166 167 171 171 169 175 174 176 178 177 177 185 180 192 198 187
306 324 14 356 321 250 239 212 186 193 175 176 168 178 190 215 257 206 200 221 231 210 199 166 190 190 183 171 170 177 179 181 187 187 189 191 193 199 198 196 196 196 193
326 310 282 358 281 260 266 196 197 189 191 203 186 176 203 212 230 227 196 216 242 225 201 203 174 191 190 183 181 177 190 193 198 195 200 202 203 209 211 205 205 205 205
261 307 305 320 356 18 31 141 166 179 190 193 195 205 180 192 268 267 261 230 241 229 204 201 176 184 190 189 197 194 190 199 208 207 210 212 213 211 214 213 213 214 215
231 331 309 359 5 70 69 102 118 136 154 160 180 167 167 150 171 232 231 221 233 213 196 196 179 177 195 197 202 208 210 216 219 222 224 224 224 222 218 214 219 217 217
199 257 19 63 95 74 91 96 116 155 156 157 148 150 148 160 169 203 184 187 219 222 202 198 202 189 187 209 220 227 233 230 238 235 232 229 235 237 231 227 226 225 223
71 56 83 90 129 97 110 119 113 107 143 145 131 115 122 139 183 181 177 184 198 200 197 200 208 206 204 217 216 224 225 229 238 242 247 244 247 244 244 242 237 236 233
141 120 134 108 117 100 123 107 100 105 109 169 146 123 84 74 109 140 167 188 191 182 175 166 162 166 187 202 210 226 223 223 228 236 237 239 246 244 244 243 244 246 245
165 184 112 119 128 141 121 117 110 122 140 183 181 128 92 163 134 156 183 181 177 180 190 176 163 158 164 173 185 194 198 205 216 223 232 239 243 245 247 248 243 247 252
181 198 142 150 160 141 134 129 113 99 109 68 225 235 190 153 150 118 159 169 174 171 166 171 168 164 163 166 157 171 174 182 189 199 215 229 236 239 246 251 253 256 254
189 189 174 161 151 158 141 133 128 88 44 88 46 325 234 193 172 139 179 151 176 176 171 171 170 166 185 178 169 166 172 174 185 199 217 230 238 247 254 266 276 277 250
188 185 181 171 180 168 164 166 173 174 252 22 51 60 54 152 163 176 135 162 155 176 185 173 173 175 180 181 175 172 178 182 195 222 242 253 259 263 276 299 280 280 280
202 189 190 184 194 188 185 186 192 171 199 190 187 91 63 66 71 81 153 169 163 172 183 187 183 184 180 187 184 179 186 187 202 238 260 268 271 289 309 318 321 313 303
217 188 193 188 194 192 189 212 200 200 209 196 200 194 114 72 67 82 112 173 92 168 174 183 190 188 189 195 203 190 187 193 271 299 282 275 283 298 311 322 326 332 337
227 195 194 191 195 197 202 214 209 225 200 209 211 266 196 39 200 142 112 86 169 191 220 182 174 189 194 192 199 186 186 201 344 302 319 296 290 298 321 334 335 336 341
194 191 195 197 199 214 214 209 214 223 218 200 214 211 204 206 160 174 182 144 95 143 170 195 188 186 186 185 196 195 210 221 253 244 330 300 281 289 308 325 333 334 346
216 207 206 208 207 213 220 216 219 215 224 199 210 215 229 234 231 143 134 154 59 66 131 114 169 171 173 176 195 202 203 250 247 238 258 346 290 279 296 311 327 338 345
225 223 219 219 220 220 224 226 222 226 216 206 210 217 217 206 206 224 170 53 91 100 167 133 149 163 163 171 187 194 202 253 245 228 225 313 40 343 325 306 312 323 342
231 230 228 222 223 231 229 232 233 229 231 216 211 214 212 202 190 186 184 107 100 116 156 157 151 172 188 182 180 222 222 254 233 247 237 260 258 274 295 289 321 321 333
237 238 236 236 235 238 236 234 238 233 233 220 217 215 212 207 213 198 185 171 146 149 150 173 177 189 177 183 198 210 240 241 240 245 242 253 279 283 261 263 271 275 273
242 243 241 238 242 241 240 233 235 235 238 243 225 200 210 213 225 218 194 177 169 164 160 173 185 186 189 192 198 211 220 263 230 224 217 246 277 295 266 248 242 239 238
246 248 246 244 240 242 243 240 238 240 269 262 206 201 212 209 209 211 204 186 186 179 161 157 126 195 191 196 204 162 141 103 100 205 235 301 310 345 320 244 240 244 240
255 255 253 246 244 243 244 243 237 210 245 238 206 199 211 201 211 207 203 187 190 198 203 193 141 148 148 171 170 160 154 170 174 191 246 289 288 315 126 196 222 235 239
238 269 279 263 256 248 247 248 249 232 218 193 189 214 218 211 210 205 205 197 190 199 191 181 161 147 158 162 188 180 171 222 284 285 272 258 271 222 200 201 216 224 238
209 186 1 345 350 315 262 260 260 204 179 171 188 208 212 202 210 207 206 196 184 182 174 176 162 158 170 193 193 190 180 269 335 343 343 227 264 218 218 230 220 222 244
40 63 71 90 5 336 304 276 232 197 160 161 177 179 198 196 205 206 204 193 180 182 177 165 167 177 213 217 212 228 200 211 298 25 102 212 291 27 287 259 223 233 251